Skip Page Navigation
NASA JPL Caltech
NASA Logo - Jet Propulsion Laboratory + View the NASA Portal
+ Center for Near-Earth Object Studies
JPL Home Earth Solar System Stars & Galaxies Technology
JPL Solar System Dynamics
BODIES ORBITS EPHEMERIDES TOOLS PHYSICAL DATA DISCOVERY FAQ SITE MAP
IMPORTANT: The SSD Announcement email list is now available. Major changes are coming in the near future, including possible hostname and/or URL changes. To be notified of such changes, subscribe to this email list.

Please visit this page for more details.


JPL Small-Body Database Browser
Search: [ help ]  
71812 (2000 TT67)
Classification: Main-belt Asteroid          SPK-ID: 2071812
Ephemeris | Orbit Diagram | Orbital Elements | Mission Design | Physical Parameters | Discovery Circumstances | Close-Approach Data ]

[ show orbit diagram ]
Orbital Elements at Epoch 2458600.5 (2019-Apr-27.0) TDB
Reference: JPL 21 (heliocentric ecliptic J2000)
 Element Value Uncertainty (1-sigma)   Units 
e .1216205073474876 3.6925e-08  
a 2.19964277630757 7.0789e-09 au
q 1.932121105869807 8.1313e-08 au
i 1.287912014176451 5.0081e-06 deg
node 317.3860049520308 0.00016048 deg
peri 259.5243947109802 0.00016181 deg
M 55.43840342695525 2.131e-05 deg
tp 2458417.000503980328
(2018-Oct-25.50050398)
7.0351e-05 TDB
period 1191.589484609191
3.26
5.7522e-06
1.575e-08
d
yr
n .302117469690554 1.4584e-09 deg/d
Q 2.467164446745333 7.9398e-09 au
  Orbit Determination Parameters
   # obs. used (total)      1057  
   data-arc span      7433 days (20.35 yr)  
   first obs. used      1999-05-13  
   last obs. used      2019-09-18  
   planetary ephem.      DE431  
   SB-pert. ephem.      SB431-N16  
   condition code      0  
   norm. resid. RMS      .58266  
   source      ORB  
   producer      Otto Matic  
   solution date      2019-Sep-24 02:40:47  

Additional Information
 Earth MOID = .925466 au 
 Jupiter MOID = 2.50474 au 
 T_jup = 3.656 
[ show covariance matrix ]

Ephemeris | Orbit Diagram | Orbital Elements | Mission Design | Physical Parameters | Discovery Circumstances | Close-Approach Data ]

Physical Parameter Table
Parameter Symbol Value Units Sigma Reference Notes
absolute magnitude H 15.9   n/a MPO337802  

71812 (2000 TT67)          Discovered 2000-Oct-02 by LINEAR at Socorro
Reference: 20031109/Numbers.arcLast Updated: 2004-04-19

[ show close-approach data ]
Alternate Designations
 2000 TT67 = 1999 JQ114 
Ephemeris | Orbit Diagram | Orbital Elements | Mission Design | Physical Parameters | Discovery Circumstances | Close-Approach Data ]
ABOUT SSD CREDITS/AWARDS PRIVACY/COPYRIGHT GLOSSARY LINKS
FirstGov 2019-Oct-17 17:22 UT
(server date/time)  
NASA Home Page
Site Manager:   Ryan S. Park
Webmaster  Alan B. Chamberlin